TimeEST,TemperatureF,Dew PointF,Humidity,Sea Level PressureIn,VisibilityMPH,Wind Direction,Wind SpeedMPH,Gust SpeedMPH,PrecipitationIn,Events,Conditions,WindDirDegrees,DateUTC
12:53 AM,62.1,57.9,86,30.11,10.0,NE,13.8,18.4,N/A,,Overcast,40,2012-12-14 05:53:00
1:12 AM,62.6,57.2,82,30.11,10.0,NNE,10.4,-,N/A,,Overcast,30,2012-12-14 06:12:00
1:33 AM,62.6,57.2,82,30.12,10.0,NNE,10.4,-,N/A,,Overcast,20,2012-12-14 06:33:00
1:53 AM,62.1,57.9,86,30.11,10.0,NE,12.7,-,N/A,,Overcast,40,2012-12-14 06:53:00
2:53 AM,60.1,57.0,90,30.10,10.0,NE,11.5,18.4,N/A,,Overcast,40,2012-12-14 07:53:00
3:41 AM,60.8,57.2,88,30.10,10.0,NNE,13.8,-,N/A,,Overcast,30,2012-12-14 08:41:00
3:53 AM,60.1,57.9,93,30.09,10.0,NNE,6.9,-,N/A,,Overcast,20,2012-12-14 08:53:00
4:53 AM,60.1,57.9,93,30.09,9.0,NNE,11.5,-,N/A,,Overcast,30,2012-12-14 09:53:00
5:53 AM,60.1,59.0,96,30.10,8.0,NNE,8.1,-,N/A,,Overcast,30,2012-12-14 10:53:00
7:53 AM,61.0,60.1,97,30.12,6.0,NE,12.7,-,N/A,,Overcast,50,2012-12-14 12:53:00
8:53 AM,63.0,61.0,93,30.14,8.0,NE,13.8,-,N/A,,Overcast,40,2012-12-14 13:53:00
9:53 AM,66.9,62.1,84,30.15,9.0,NE,13.8,-,N/A,,Mostly Cloudy,40,2012-12-14 14:53:00
10:05 AM,66.2,62.6,88,30.15,10.0,NE,11.5,-,N/A,,Mostly Cloudy,40,2012-12-14 15:05:00
10:53 AM,72.0,63.0,73,30.15,10.0,NE,9.2,-,N/A,,Scattered Clouds,40,2012-12-14 15:53:00
11:53 AM,73.9,63.0,68,30.12,10.0,NE,13.8,-,N/A,,Partly Cloudy,40,2012-12-14 16:53:00
12:53 PM,77.0,63.0,62,30.10,10.0,ENE,16.1,-,N/A,,Partly Cloudy,60,2012-12-14 17:53:00
2:53 PM,79.0,61.0,54,30.06,10.0,ENE,13.8,-,N/A,,Partly Cloudy,70,2012-12-14 19:53:00
3:53 PM,78.1,61.0,56,30.06,10.0,ENE,9.2,-,N/A,,Scattered Clouds,60,2012-12-14 20:53:00
4:53 PM,75.9,61.0,60,30.05,10.0,ENE,11.5,20.7,N/A,,Partly Cloudy,60,2012-12-14 21:53:00
5:53 PM,72.0,61.0,68,30.06,10.0,NE,8.1,-,N/A,,Clear,50,2012-12-14 22:53:00
6:53 PM,70.0,62.1,76,30.08,10.0,NE,3.5,-,N/A,,Clear,40,2012-12-14 23:53:00
7:53 PM,69.1,62.1,78,30.10,10.0,NNE,3.5,-,N/A,,Clear,30,2012-12-15 00:53:00
8:53 PM,66.9,62.1,84,30.12,10.0,NE,4.6,-,N/A,,Clear,40,2012-12-15 01:53:00
9:53 PM,66.0,62.1,87,30.11,10.0,NE,5.8,-,N/A,,Clear,40,2012-12-15 02:53:00
10:53 PM,64.9,61.0,87,30.11,10.0,NE,10.4,-,N/A,,Clear,40,2012-12-15 03:53:00
11:53 PM,63.0,61.0,93,30.09,10.0,NE,6.9,-,N/A,,Clear,50,2012-12-15 04:53:00